Home   Weather   Stavern   Past weeks

Flag for Norway Past Weather in Stavern, Norway — Yesterday and Last 2 Weeks

Now
46 °F

Low clouds.


Feels Like: 41 °F
Forecast: 41 / 45 °F
Wind: 10 mph from Southwest

Location: Torp

Current Time: Dec 8, 2016 at 3:31:09 am

Latest Report: Dec 8, 2016 at 2:50 am


Visibility: 6 mi

Pressure: 29.62 "Hg

Humidity: 100%

Dew Point: 46 °F

Location of StavernLocation

Past Weather in Stavern — Graph

°F

Stavern Temperature Yesterday

Maximum temperature yesterday: 43 °F (at 3:50 pm)
Minimum temperature yesterday: 37 °F (at 5:20 am)
Average temperature yesterday: 41 °F

High & Low Weather Summary for the Past Weeks

 TemperatureHumidityPressure
High50 °F (Dec 5, 12:20 pm)100% (Nov 23, 1:20 am)30.45 "Hg (Nov 23, 1:20 am)
Low25 °F (Nov 29, 7:20 am)39% (Nov 27, 12:50 pm)29.53 "Hg (Dec 1, 2:20 pm)
Average38 °F71%30.03 "Hg
* Reported Nov 23 1:20 am — Dec 8 1:50 am, Stavern, Weather by CustomWeather, © 2016

Note: Actual official high and low records may vary slightly from our data, if they occured in-between our weather recording intervals... More about our weather records

Advertising

Stavern Weather History for the Previous 24 Hours

Scroll right to see more
 ConditionsComfort  
Time TempWeatherWind HumidityBarometerVisibility
1:50 am
Thu, Dec 8
46 °FLow clouds.13 mph100%29.65 "Hg4 mi
1:20 am45 °FFog.15 mph100%29.65 "Hg2 mi
12:50 am43 °FPassing clouds.10 mph100%29.65 "Hg6 mi
12:20 am43 °FLow clouds.9 mph100%29.68 "Hg2 mi
11:50 pm
Wed, Dec 7
43 °FLow clouds.10 mph100%29.68 "Hg3 mi
11:20 pm43 °FLow clouds.8 mph100%29.68 "Hg2 mi
10:50 pm43 °FFog.8 mph100%29.68 "Hg2 mi
10:20 pm43 °FFog.7 mph100%29.71 "Hg1 mi
9:50 pm43 °FFog.9 mph100%29.74 "Hg3 mi
9:20 pm43 °FPassing clouds.9 mph100%29.74 "Hg5 mi
8:50 pm41 °FPassing clouds.3 mph100%29.74 "HgN/A
8:20 pm41 °FPassing clouds.1 mph100%29.74 "HgN/A
7:50 pm41 °FLow clouds.5 mph100%29.74 "HgN/A
7:20 pm41 °FPassing clouds.6 mph100%29.74 "HgN/A
6:50 pm41 °FPassing clouds.8 mph100%29.77 "HgN/A
6:20 pm41 °FPassing clouds.6 mph100%29.77 "HgN/A
5:50 pm43 °FLight rain. Passing clouds.3 mph100%29.77 "HgN/A
5:20 pm43 °FLight rain. Low clouds.8 mph100%29.80 "Hg6 mi
4:50 pm43 °FLight rain. Low clouds.8 mph100%29.77 "Hg4 mi
4:20 pm43 °FDrizzle. Fog.10 mph100%29.80 "Hg3 mi
3:50 pm43 °FLight rain. Fog.12 mph100%29.80 "Hg1 mi
3:20 pm41 °FDrizzle. Low clouds.14 mph100%29.83 "Hg3 mi
2:50 pm41 °FRain. Low clouds.16 mph100%29.86 "Hg3 mi
2:20 pm41 °FLight rain. Fog.17 mph100%29.89 "Hg2 mi
1:50 pm41 °FRain. Fog.16 mph100%29.92 "Hg2 mi
1:20 pm39 °FRain. Low clouds.17 mph100%29.92 "Hg2 mi
12:50 pm41 °FLight rain. Fog.16 mph93%29.95 "Hg3 mi
12:20 pm41 °FLight rain. Low clouds.16 mph100%29.98 "Hg3 mi
11:50 am41 °FLight rain. Low clouds.17 mph100%30.01 "Hg3 mi
11:20 am41 °FRain. Fog.15 mph100%30.04 "Hg3 mi
10:50 am39 °FDrizzle. Fog.15 mph100%30.07 "Hg3 mi
10:20 am39 °FDrizzle. Fog.14 mph100%30.07 "Hg3 mi
9:50 am39 °FDrizzle. Fog.13 mph100%30.07 "Hg3 mi
9:20 am39 °FDrizzle. Low clouds.13 mph100%30.09 "Hg3 mi
8:50 am39 °FDrizzle. Fog.12 mph100%30.09 "Hg3 mi
8:20 am39 °FPassing clouds.13 mph100%30.12 "HgN/A
7:50 am37 °FPartly cloudy.14 mph100%30.12 "HgN/A
7:20 am37 °FPartly cloudy.14 mph100%30.15 "HgN/A
6:50 am37 °FPassing clouds.13 mph100%30.15 "HgN/A
6:20 am37 °FPartly cloudy.12 mph100%30.15 "HgN/A
5:50 am37 °FPassing clouds.12 mph100%30.18 "Hg6 mi
5:20 am37 °FLow clouds.10 mph100%30.18 "Hg4 mi
Weather by CustomWeather, © 2016

See weather overviewHow to use our weather pages